Simultaneous Nadir Overpasses (SNOs) Predictions

Prediction of SNOs between METOP-B and TERRA Satellite Orbit:

Table of predicted SNOs for the next 14.0 days since TLE Epoch: 1/9/2021
Index Date (METOP-B) Time (METOP-B) Lat,Lon (METOP-B) SZA (METOP-B ) Date (TERRA) Time (TERRA) Lat,Lon (TERRA) SZA (TERRA ) Distance(km) Time Diff (sec)
1 01/10/2021 06:14:28 -81.29, -47.16 74.44 01/10/2021 06:15:33 -81.29, -47.21 74.42 0.87 65
2 01/10/2021 07:05:08 81.30, 120.58 105.60 01/10/2021 07:04:59 81.30, 120.56 105.59 0.41 9
3 01/13/2021 01:48:51 -81.29, 19.28 74.92 01/13/2021 01:49:46 -81.29, 19.27 74.90 0.19 55
4 01/13/2021 02:39:31 81.30,-173.02 105.12 01/13/2021 02:39:12 81.30,-172.98 105.12 0.65 19
5 01/15/2021 21:23:15 -81.29, 85.71 75.45 01/15/2021 21:24:00 -81.29, 85.72 75.43 0.11 45
6 01/15/2021 22:13:55 81.30,-106.64 104.59 01/15/2021 22:13:26 81.30,-106.57 104.58 1.32 29
7 01/18/2021 16:57:39 -81.29, 152.13 76.02 01/18/2021 16:58:14 -81.29, 152.13 76.01 0.27 35
8 01/18/2021 17:48:19 81.30, -40.28 104.00 01/18/2021 17:47:40 81.29, -40.18 103.99 1.68 39
9 01/21/2021 12:32:02 -81.29,-141.47 76.65 01/21/2021 12:32:27 -81.29,-141.50 76.65 0.83 25



Historial Predications of SNOs between METOP-B and TERRA
